Location: Cherry Springs State Park
(41.6616°N, 77.8240°W)
Time: 20:02:25
(UTC-04:00)

Daily predictions for brighter satellites

Satellite Brightness Start Highest point End
(mag) Time Altitude Azimuth Time Altitude Azimuth Time Altitude Azimuth
Spot 2 Rocket 4.2 19:21:11 10° SE 19:25:38 33° ENE 19:30:07 10° N
Meteor 1-24 Rocket 3.7 19:21:25 10° N 19:27:04 69° ENE 19:32:29 10° SSE
Cosmos 1707 3.1 19:23:43 10° NNW 19:27:34 70° W 19:31:24 10° S
Cosmos 2369 Rocket 4.0 19:25:57 10° NNE 19:28:47 14° NE 19:31:37 10° ENE
Cosmos 2056 Rocket 3.6 19:24:44 10° NNW 19:30:12 84° ENE 19:35:37 10° SSE
Meteor 2-5 Rocket 4.3 19:25:00 10° NNW 19:30:34 64° W 19:36:01 10° S
Helios 1A 4.0 19:27:39 10° SE 19:31:14 28° ENE 19:34:49 10° N
ATLAS CENTAUR R/B 3.6 19:27:49 10° SSW 19:32:26 60° ESE 19:46:31 10° NE
SJ-6B 2.8 19:38:25 10° SSE 19:42:23 76° ENE 19:46:27 10° N
COSMO-SKYMED 1 3.4 19:39:57 10° N 19:44:14 56° WNW 19:48:28 10° SSW
Cosmos 2333 Rocket 4.0 19:42:37 10° WSW 19:47:51 35° WNW 19:53:08 10° N
Cosmos 192 4.3 19:46:27 10° S 19:51:23 74° ESE 19:56:21 10° NNE
Timation 1 Rocket 4.3 19:45:35 10° NNW 19:51:34 83° ENE 19:57:33 10° SSE
NOAA 12 4.1 19:46:20 10° SSE 19:51:35 85° ENE 19:56:54 10° NNW
Spot 1 4.2 19:47:33 10° SSE 19:52:15 65° ENE 19:56:42 10° N
Cosmos 1758 3.7 19:49:28 10° SSE 19:53:19 43° E 19:57:14 10° NNE
HJ-1C 3.5 19:51:19 10° SSE 19:54:35 53° ENE 19:57:53 10° N
USA 215 3.3 19:49:47 10° NE 19:56:15 61° SE 20:02:41 10° SSW
FengYun 1-2 T 4.4 19:51:08 10° SE 19:56:26 50° ENE 20:01:43 10° N
In-Cosmos 22 4.3 19:50:44 10° N 19:56:29 64° ENE 20:02:10 10° SSE
OAO 3 Rocket 4.0 19:55:15 10° WSW 19:59:37 37° S 20:02:48 17° ESE
Aureole 2 Rocket 3.7 19:55:43 10° SSW 20:00:03 58° WNW 20:04:17 10° NNE
Cosmos 1674 4.0 19:57:33 10° NNE 20:00:38 22° ENE 20:01:38 20° E
ISS -1.4 19:58:54 10° SSE 20:00:33 15° SE 20:00:33 15° SE
Cosmos 1766 Rocket 3.4 19:59:49 10° N 20:04:13 75° E 20:08:33 10° SSE
ALOS 2.6 20:04:21 10° SE 20:08:46 44° ENE 20:13:12 10° N
CZ-4C R/B 4.0 20:03:56 10° WSW 20:08:47 31° NW 20:14:12 10° NNE
Cosmos 2034 Rocket 3.9 20:04:45 10° S 20:10:59 75° E 20:17:19 10° N
Cosmos 2237 Rocket 4.3 20:06:25 10° WSW 20:11:15 28° NW 20:16:06 10° N
Helios 1B rocket 2.3 20:07:46 10° NNE 20:11:54 76° ESE 20:16:00 10° S
Meteor 1-29 2.9 20:08:58 10° NNE 20:12:28 63° E 20:15:55 10° S
Cosmos 1464 Rocket 4.1 20:06:36 10° S 20:12:51 80° W 20:19:05 10° N
Meteor 1-21 Rocket 4.1 20:08:02 10° N 20:13:35 66° ENE 20:19:04 10° SSE
ATLAS 5 CENTAUR R/B 1.8 20:10:02 10° SW 20:14:48 89° NW 20:20:00 10° NE
Cosmos 1076 Rocket 3.9 20:11:11 10° NNW 20:15:29 66° W 20:19:48 10° S
ERS-1 Rocket 4.4 20:15:07 18° ENE 20:15:31 18° ENE 20:18:50 10° NNE
SeaSat 1 3.3 20:12:54 10° NE 20:17:02 26° ESE 20:21:09 10° SSE
Cosmos-2242 2.9 20:17:24 10° S 20:21:46 83° E 20:26:10 10° N
CZ-4B DEB 2.8 20:23:55 37° SE 20:24:58 60° ENE 20:28:13 10° N
Cosmos 1452 Rocket 3.7 20:21:32 10° NNW 20:26:47 73° WSW 20:32:00 10° S
SL-16 R/B 3.5 20:25:48 10° SW 20:31:09 41° WNW 20:36:32 10° N
NOSS 3-2 (A) 4.3 20:25:43 10° SW 20:31:41 53° NW 20:38:14 10° NNE
ATLAS CENTAUR R/B 4.4 20:31:57 10° W 20:33:28 12° WSW 20:34:57 10° SW
Cosmos 2151 4.2 20:30:40 10° NNE 20:33:20 25° NE 20:33:20 25° NE
CZ-2D R/B 3.2 20:33:52 36° SE 20:35:18 67° ENE 20:39:12 10° N
Cosmos 1842 Rocket 3.5 20:32:43 10° S 20:36:57 57° E 20:41:14 10° NNE
Cosmos 1500 Rocket 3.5 20:33:31 10° N 20:37:55 60° E 20:39:25 38° SE
SL-8 R/B 3.7 20:36:18 10° SW 20:40:59 58° SE 20:42:04 46° E
Cosmos 1544 3.4 20:38:29 10° SSW 20:42:12 69° W 20:45:57 10° N
Gbstr 26 Del rocket 3.9 20:42:18 10° SSW 20:45:51 37° SSE 20:45:51 37° SSE
Cosmos 1953 3.7 20:43:37 10° SSW 20:47:22 40° WNW 20:51:09 10° N
Cosmos 1420 Rocket 4.0 20:43:36 10° NNW 20:48:55 83° WSW 20:52:00 26° SSE
H-2A R/B 2.8 20:50:10 44° S 20:51:20 79° WSW 20:55:14 10° NNW
FENGYUN 3A 3.8 20:47:53 10° S 20:53:14 72° WSW 20:58:38 10° NNW
Resurs 01 Rocket 3.4 20:51:55 10° SSW 20:55:52 31° W 20:59:51 10° NW
ASTEX 1 3.5 20:53:07 10° N 20:58:02 74° W 21:02:53 10° SSW
CENTAUR R/B 2.4 20:59:49 10° SSW 21:05:44 65° ESE 21:12:27 10° NE
Cosmos 1269 Rocket 4.4 21:01:06 10° SSW 21:06:19 62° WNW 21:11:34 10° NNE
Cosmos 1048 Rocket 4.2 21:02:53 10° SSW 21:08:11 70° WNW 21:13:26 10° NNE
Cosmos 2369 Rocket 2.0 21:08:05 10° NNW 21:13:46 78° ENE 21:14:17 71° ESE
Cosmos 1943 3.0 21:08:32 10° SSW 21:14:10 78° ESE 21:19:48 10° NNE
Cosmos 1470 3.6 21:13:51 43° WSW 21:14:35 49° W 21:18:23 10° N
Envisat 3.5 21:16:18 45° NNE 21:16:18 45° NNE 21:20:10 10° N
Cosmos 1943 Rocket 3.0 21:12:23 10° N 21:16:39 35° NE 21:16:39 35° NE
Cosmos 2263 4.3 21:12:46 10° NNW 21:18:21 62° NE 21:18:21 62° NE
Cosmos 2279 Rocket 4.2 21:22:58 51° NE 21:22:58 51° NE 21:27:52 10° NNE
GP-B 3.5 21:19:22 10° N 21:23:34 62° WNW 21:23:34 62° WNW
Cosmos 1655 Rocket 3.8 21:20:05 10° N 21:26:20 75° E 21:26:29 75° E
USA 215 4.1 21:33:35 13° NE 21:39:06 46° NNW 21:45:16 10° W
Cosmos 2026 Rocket 4.0 21:36:27 10° N 21:42:32 74° W 21:42:57 71° SW
H-2A R/B 4.4 21:48:55 18° N 21:48:55 18° N 21:50:06 10° N
Meteor 1-11 4.5 21:42:17 10° NNW 21:47:39 67° WNW 21:47:39 67° WNW
ERS-1 Rocket 4.0 21:55:08 43° NW 21:55:08 43° NW 21:58:47 10° NNW
SeaSat 1 3.5 21:50:01 10° NNE 21:54:39 42° WNW 21:59:17 10° SW
ATLAS 5 CENTAUR R/B 4.5 21:56:56 10° WNW 22:00:19 18° NNW 22:03:54 10° N
CENTAUR R/B 4.2 22:51:31 10° W 22:56:59 30° NW 23:03:03 10° NNE
Cosmos 1943 Rocket 4.5 22:56:21 10° NW 22:58:11 19° NW 22:58:11 19° NW
